Regional Weather Roundup
Issued by NWS

Home | Current Version | Previous Version | Graphics & Text | Print | Product List | Glossary On
Versions: 1 2 3 4 5 6 7 8 9 10 11 12 13 14 15 16 17 18 19 20 21 22 23 24 25 26 27 28 29 30 31 32 33 34 35 36 37 38 39 40 41 42 43 44 45 46 47 48 49 50
000
ASUS43 KMKX 011121
RWRWI

WISCONSIN REGIONAL WEATHER ROUNDUP
NATIONAL WEATHER SERVICE MILWAUKEE/SULLIVAN WI
600 AM CDT WED APR 01 2015

NOTE: "FAIR" INDICATES FEW OR NO CLOUDS BELOW 12,000 FEET WITH NO
SIGNIFICANT WEATHER AND/OR OBSTRUCTIONS TO VISIBILITY.

WIZ001-002-006>008-014>016-023>028-011200-
NORTHWEST WISCONSIN

CITY           SKY/WX    TMP DP  RH WIND       PRES   REMARKS
SUPERIOR ARPT  CLOUDY    31  31  99 NE9       29.91F WCI  23
ASHLAND        FOG       30  30 100 NE5       29.94F VSB 1/4 WCI  25
HAYWARD        PTCLDY    39  29  67 SE5       29.90S
SIREN          CLEAR     41  31  68 SE8       29.85S
CUMBERLAND     CLEAR     36  30  80 SE9       29.87F WCI  29
RICE LAKE      CLEAR     38  31  74 E9        29.90F WCI  32
CHETEK         CLEAR     38  32  77 E7        29.90F WCI  33
LADYSMITH      PTCLDY    35  31  85 E7        29.93F WCI  29
EAU CLAIRE     CLEAR     39  30  70 SE8       29.89S WCI  33
MENOMONIE      CLEAR     40  31  71 E12       29.88S WCI  32
NEW RICHMOND   CLEAR     40  30  66 E10       29.83F WCI  34
OSCEOLA        CLEAR     42  31  64 E13       29.85F
$$

WIZ003>005-009-010-017-018-011200-
NORTH CENTRAL WISCONSIN

CITY           SKY/WX    TMP DP  RH WIND       PRES   REMARKS
MANITOWISH WTR MOCLDY    29  29 100 SE3       29.93F
ARBOR VITAE    PTCLDY    32  30  92 CALM      29.95R
WOODRUFF       PTCLDY    32  30  92 CALM      29.95R
RHINELANDER    CLOUDY    29  27  92 E3        29.96S
EAGLE RIVER    PTCLDY    26  24  91 CALM      29.95S
LAND O LAKES   MOCLDY    27  27  98 CALM      29.96S
PHILLIPS       MOCLDY    34  30  85 SE3       29.93R
TOMAHAWK       MOCLDY    28  26  94 CALM      29.97S
MEDFORD        CLOUDY    36  31  83 SE6       29.95R WCI  31
MERRILL        PTCLDY    27  27  98 CALM      29.97R
$$

WIZ029-030-035-036-043>047-011200-
CENTRAL WISCONSIN

CITY           SKY/WX    TMP DP  RH WIND       PRES   REMARKS
WAUSAU         MOCLDY    31  28  89 E5        29.96S WCI  26
MOSINEE        CLOUDY    34  30  86 E3        29.97F
MARSHFIELD     PTCLDY    34  29  82 SE6       29.96R WCI  29
STEVENS POINT  PTCLDY    27  25  92 CALM      29.98S
WAUPACA        PTCLDY    29  27  91 CALM      30.00S
WAUTOMA        PTCLDY    26  26 100 CALM      30.00R
WISC RAPIDS    CLEAR     32  27  81 E5        29.98S WCI  27
CAMP DOUGLAS   MOCLDY    34  34 100 SE6       29.95S WCI  29
$$

WIZ011>013-019>022-031-037>040-048>050-011200-
NORTHEAST WISCONSIN

CITY           SKY/WX    TMP DP  RH WIND       PRES   REMARKS
ANTIGO         MOCLDY    31  29  91 S5        29.98R WCI  27
SHAWANO        CLEAR     29  27  94 CALM      30.01R
OCONTO         FAIR      22  22  99 CALM      30.02R
STURGEON BAY   CLEAR     28  25  86 CALM      30.04R
GREEN BAY      CLEAR     29  28  96 CALM      30.02R
MANITOWOC      CLEAR     28  27  96 CALM      30.02R
APPLETON       MOCLDY    30  28  93 CALM      30.00S
CLINTONVILLE   CLEAR     27  27 100 CALM      30.01R
OSHKOSH        CLEAR     31  28  89 CALM      30.00R
$$

WIZ032>034-041-042-053>061-011200-
SOUTHWEST WISCONSIN

CITY           SKY/WX    TMP DP  RH WIND       PRES   REMARKS
LA CROSSE      CLEAR     39  29  67 SE7       29.91S WCI  34
SPARTA         PTCLDY    39  30  70 E3        29.94S
VIROQUA        CLEAR     37  30  74 SE12      29.92S WCI  30
BOSCOBEL       CLEAR     31  27  85 CALM      29.95S
PRAIRIE DU CHI CLEAR     35  31  88 E3        29.93S
PLATTEVILLE    CLEAR     38  32  79 E12       29.94S WCI  30
$$

WIZ056-057-062-063-064-067-068-011200-
SOUTH CENTRAL WISCONSIN

CITY           SKY/WX    TMP DP  RH WIND       PRES   REMARKS
REEDSBURG      MOCLDY    35  31  86 CALM      29.95F
BARABOO/DELLS  MOCLDY    38  30  70 E5        29.96S WCI  35
LONE ROCK      PTCLDY    35  30  82 CALM      29.96F
MINERAL POINT  PTCLDY    39  32  75 E7        29.94S WCI  34
MADISON        PTCLDY    32  28  85 VRB3      29.97F
MIDDLETON      PTCLDY    32  29  91 CALM      29.98S
WATERTOWN      CLEAR     28  27  94 CALM      29.98S
MONROE         CLEAR     37  32  81 NE6       29.95S WCI  33
JANESVILLE     CLEAR     36  32  87 E3        29.97S
$$

WIZ051-052-058>065-066-070>072-011200-
SOUTHEAST WISCONSIN

CITY           SKY/WX    TMP DP  RH WIND       PRES   REMARKS
MILWAUKEE      CLEAR     38  31  76 SE3       30.02R
WAUKESHA       CLEAR     30  28  93 CALM      30.01R
MILWAUKEE/TIMM CLEAR     32  28  86 CALM      30.01S
RACINE         CLEAR     32  29  88 N5        30.02R WCI  27
BURLINGTON     CLEAR     27  26  96 CALM      30.00S
KENOSHA        CLEAR     30  28  92 NE3       30.00R
FOND DU LAC    CLEAR     29  26  89 CALM      29.99R
SHEBOYGAN      CLEAR     28  25  88 CALM      30.01R
WEST BEND      FAIR      28  27  93 CALM      30.00S FOG
JUNEAU         CLEAR     35  30  83 E6        29.99S WCI  30
$$

LSZ147-162-011200-
LAKE SUPERIOR

STATION/POSITION TIME  TEMP    WIND        PRES    WAVE
                       AIR SEA DIR/SP/G            HT/PER
                 (UTC) (F)     (DEG/KT/KT) (MB)    (FT/S)
DEVILS ISLAND    1100   29     100/ 13/ 15 1014.6F
PORT WING        1000   31      40/ 10/ 12 1014.6S
SAXON HARBOR     1100   30      CALM  / 17 1013.9F
$$

LMZ867-665-643>646-011200-
LAKE MICHIGAN

STATION/POSITION TIME  TEMP    WIND        PRES    WAVE
                       AIR SEA DIR/SP/G            HT/PER
                 (UTC) (F)     (DEG/KT/KT) (MB)    (FT/S)
NORTHPORT PIER   1100   33      90/  3/  6 1016.9R
SISTER BAY       0932   30        CALM       N/A
KEWAUNEE LAKESHO 1100   27     310/  2/  4 1015.5R
SHEBOYGAN LAKESH 1100   38     350/  4/  5 1017.1R
PORT WASHINGTON  1000   36     300/  2/  3 1016.6R
MILWAUKEE LAKESH 1100   40      40/  7/  8   N/A
KENOSHA   LAKESH 1100   38     350/  3/  6 1016.3R
$$

TC  - TEMPERATURE IN CELSIUS
VSB - VISIBILITY IN STATUTE MILES
WCI - WIND CHILL INDEX
HX  - HEAT INDEX




USA.gov is the U.S. government's official web portal to all federal, state and local government web resources and services.